[Iaude] MPEC J87: 2024 JZ1 [a=1.98,e=0.47,i=3.9,H=26.7]
    mpec at cfa.harvard.edu 
    mpec at cfa.harvard.edu
       
    Sun May  5 13:29:02 EDT 2024
    
    
  
M.P.E.C. 2024-J87                                   Issued 2024 May 5, 17:27 UT
     The Minor Planet Electronic Circulars contain information on unusual
         minor planets, routine data on comets and natural satellites,
         and occasional editorial announcements.  They are published
    on behalf of Division F of the International Astronomical Union by the
          Minor Planet Center, Smithsonian Astrophysical Observatory,
                          Cambridge, MA 02138, U.S.A.
			  
             Prepared using the Tamkin Foundation Computer Network
                              MPC at CFA.HARVARD.EDU
            URL https://www.minorplanetcenter.net/    ISSN 1523-6714
                                    2024 JZ1                                    
Observations:
     K24J01Z 1C2024 04 28.36156 14 26 26.61 -08 23 01.7          20.1 GVEJ087G96
     K24J01Z 1C2024 04 28.36676 14 26 30.59 -08 23 57.3          20.3 GVEJ087G96
     K24J01Z 1C2024 04 28.37195 14 26 34.50 -08 24 54.6          20.5 GVEJ087G96
     K24J01Z 1C2024 04 28.37714 14 26 38.49 -08 25 50.9          20.3 GVEJ087G96
     K24J01Z* C2024 05 02.42899015 24 31.958-20 16 12.40         20.69wXEJ087F51
     K24J01Z  C2024 05 02.44069215 24 41.105-20 18 05.46         20.97wXEJ087F51
     K24J01Z  C2024 05 02.45238415 24 50.251-20 19 58.11         20.80wXEJ087F51
     K24J01Z  C2024 05 02.46407515 24 59.350-20 21 49.78         20.65wXEJ087F51
     K24J01Z KB2024 05 03.04620515 33 18.01 -21 53 24.1          20.5 GXEJ087I93
     K24J01Z KB2024 05 03.05453715 33 24.58 -21 54 40.8          20.5 GXEJ087I93
     K24J01Z KC2024 05 03.33036715 37 21.990-22 35 55.54         20.94GVEJ087I52
     K24J01Z KC2024 05 03.33189215 37 23.131-22 36 09.00         20.94GVEJ087I52
     K24J01Z KC2024 05 03.33340915 37 24.276-22 36 22.46         21.07GVEJ087I52
     K24J01Z KC2024 05 03.33493015 37 25.460-22 36 36.32         20.62GVEJ087I52
Observer details:
F51 Pan-STARRS 1, Haleakala.  Observers J. Herman, T. Lowe, P. Minguez, A.
    Schultz, I. Smith.  Measurers K. Chambers, T. de Boer, J. Fairlamb, H.
    Gao, M. Huber, C.-C. Lin, E. Magnier, Y. Ramanjooloo, R. Wainscoat, R.
    Weryk.  1.8-m Ritchey-Chretien + CCD.
G96 Mt. Lemmon Survey.  Observer T. Beuden.  Measurers B. Gray, D. Rankin, F.
    C. Shelly.  1.5-m reflector + 10K CCD.
I52 Steward Observatory, Mt. Lemmon Station.  Observer V. F. Carvajal.
    Measurers T. Beuden, V. F. Carvajal, D. Fay, J. B. Fazekas, D. C. Fuls, A.
    R. Gibbs, A. D. Grauer, H. Groeller, J. K. Hogan, R. A. Kowalski, S. M.
    Larson, G. J. Leonard, D. Rankin, R. L. Seaman, F. C. Shelly, K. W.
    Wierzchos.  1.0-m prime focus + CCD.
I93 St Pardon de Conques.  Observer F. Losse.  0.40-m f/3.7 reflector + CCD.
Orbital elements:
2024 JZ1                                                 Earth MOID = 0.0435 AU
Epoch 2024 Mar. 31.0 TT = JDT 2460400.5                 MPC                     
M 350.42179              (2000.0)            P               Q                  
n   0.35398351     Peri.  174.95237     -0.80151379     +0.59623965             
a   1.9791590      Node    41.75959     -0.55099786     -0.70681087             
e   0.4692900      Incl.    3.92085     -0.23232952     -0.38067923             
P   2.78           H   26.79          G   0.15           U   8                  
Residuals in seconds of arc
240428 G96  0.0   0.6-    240502 F51  0.1-  0.0     240503 I52  0.8+  0.2-
240428 G96  0.3+  0.6+    240502 F51  0.2+  0.2-    240503 I52  0.2+  0.0
240428 G96  0.4-  0.1-    240502 F51  0.0   0.1+    240503 I52  0.3-  0.2+
240428 G96  0.1+  0.2+    240503 I93  0.2+  0.4+    240503 I52  0.3-  0.1-
240502 F51  0.1-  0.1+    240503 I93  0.3-  0.4-
Ephemeris:
2024 JZ1                 a,e,i = 1.98, 0.47, 4                   q = 1.0504
Date    TT    R. A. (2000) Decl.     Delta      r    Elong.  Phase     V
2024 04 05    11 33 11.0 +26 06 04   0.09910 1.0802   142.0    34.7    23.4
...
2024 04 20    12 50 56.6 +12 50 12   0.05530 1.0535   151.3    27.2    21.8
...
2024 04 28    14 21 32.0 -07 14 44   0.04392 1.0504   173.1     6.6    20.6
...
2024 05 04    15 46 45.9 -24 10 08   0.04688 1.0533   163.3    15.9    21.1
2024 05 05    16 00 33.2 -26 23 57   0.04833 1.0542   160.5    18.6    21.3
2024 05 06    16 13 53.9 -28 24 20   0.05000 1.0553   157.8    21.1    21.4
...
2024 05 12    17 21 10.4 -36 18 15   0.06361 1.0641   147.0    31.1    22.3
...
2024 05 20    18 16 05.1 -40 13 45   0.08735 1.0824   142.5    34.7    23.1
...
2024 06 04    18 54 55.5 -41 30 33   0.1396  1.1346   147.4    28.8    24.1
A. U. Tomatic                (C) Copyright 2024 MPC           M.P.E.C. 2024-J87
    
    
More information about the Iaude
mailing list